Wetterstation Vettwei-Soller: Standort 50 43' 54" Nord - 6 33' 24" Ost
Wetterdaten: aktuell Freitag, 19.07.2024 10:30
Datum Zeit Temp. A. Temp. A. min Temp. A. max Feuchte A. Luftdruck Regen Wind Richtung Richtung Sonnenschein Zeit Regen ET UV Solar Taupunkt Windchill Windben
19.07.2024 10:30 24,3 C 23,9 C 24,3 C 64 % 1020,1 hPa 0,0 l/m 0,6 km/h (0 Bft) O 93 15 min 0 min 0,000 mm 2,1 UV-I 385 W/m 17,0 C 24,3 C 4,8 km/h (1 Bft)
19.07.2024 10:15 23,9 C 23,5 C 23,9 C 66 % 1020,1 hPa 0,0 l/m 1,9 km/h (1 Bft) O 94 0 min 0 min 0,000 mm 1,7 UV-I 325 W/m 17,1 C 23,9 C 4,8 km/h (1 Bft)
19.07.2024 10:00 23,5 C 23,3 C 23,7 C 64 % 1020,2 hPa 0,0 l/m 1,5 km/h (1 Bft) O 94 0 min 0 min 0,177 mm 1,5 UV-I 304 W/m 16,3 C 23,5 C 4,8 km/h (1 Bft)
19.07.2024 09:45 23,3 C 22,6 C 23,3 C 69 % 1020,2 hPa 0,0 l/m 2,2 km/h (1 Bft) O 94 15 min 0 min 0,000 mm 1,5 UV-I 338 W/m 17,3 C 23,3 C 6,4 km/h (2 Bft)
19.07.2024 09:30 22,6 C 22,3 C 22,6 C 68 % 1020,2 hPa 0,0 l/m 0,9 km/h (0 Bft) O 94 0 min 0 min 0,000 mm 1,2 UV-I 287 W/m 16,4 C 22,6 C 6,4 km/h (2 Bft)
19.07.2024 09:15 22,3 C 21,8 C 22,3 C 69 % 1020,1 hPa 0,0 l/m 0,0 km/h (0 Bft) O 94 0 min 0 min 0,000 mm 1,0 UV-I 255 W/m 16,3 C 22,3 C 1,6 km/h (1 Bft)
19.07.2024 09:00 21,8 C 21,6 C 21,9 C 69 % 1020,2 hPa 0,0 l/m 0,8 km/h (0 Bft) O 94 0 min 0 min 0,127 mm 0,9 UV-I 232 W/m 15,9 C 21,8 C 6,4 km/h (2 Bft)
19.07.2024 08:45 21,6 C 21,0 C 21,6 C 72 % 1020,2 hPa 0,0 l/m 1,6 km/h (1 Bft) O 94 15 min 0 min 0,000 mm 0,8 UV-I 241 W/m 16,3 C 21,6 C 6,4 km/h (2 Bft)
19.07.2024 08:30 21,0 C 20,8 C 21,0 C 75 % 1020,3 hPa 0,0 l/m 1,3 km/h (1 Bft) O 94 0 min 0 min 0,000 mm 0,6 UV-I 192 W/m 16,4 C 21,0 C 6,4 km/h (2 Bft)
19.07.2024 08:15 20,8 C 20,2 C 20,8 C 74 % 1020,5 hPa 0,0 l/m 0,6 km/h (0 Bft) O 94 0 min 0 min 0,000 mm 0,5 UV-I 192 W/m 16,0 C 20,8 C 3,2 km/h (1 Bft)
19.07.2024 08:00 20,2 C 20,0 C 20,2 C 75 % 1020,6 hPa 0,0 l/m 0,3 km/h (0 Bft) O 94 15 min 0 min 0,077 mm 0,0 UV-I 178 W/m 15,6 C 20,2 C 3,2 km/h (1 Bft)
19.07.2024 07:45 20,1 C 19,7 C 20,1 C 75 % 1020,6 hPa 0,0 l/m 0,0 km/h (0 Bft) O 93 0 min 0 min 0,000 mm 0,0 UV-I 151 W/m 15,5 C 20,1 C 0,0 km/h (0 Bft)
19.07.2024 07:30 19,8 C 18,8 C 19,8 C 78 % 1020,5 hPa 0,0 l/m 0,0 km/h (0 Bft) O 93 0 min 0 min 0,000 mm 0,0 UV-I 125 W/m 15,8 C 19,8 C 0,0 km/h (0 Bft)
19.07.2024 07:15 18,8 C 17,2 C 18,8 C 81 % 1020,5 hPa 0,0 l/m 0,0 km/h (0 Bft) O 94 15 min 0 min 0,000 mm 0,0 UV-I 125 W/m 15,5 C 18,8 C 0,0 km/h (0 Bft)
19.07.2024 07:00 17,2 C 16,4 C 17,2 C 85 % 1020,5 hPa 0,0 l/m 0,0 km/h (0 Bft) O 94 15 min 0 min 0,025 mm 0,0 UV-I 132 W/m 14,7 C 17,2 C 0,0 km/h (0 Bft)
19.07.2024 06:45 16,4 C 16,1 C 16,4 C 87 % 1020,6 hPa 0,0 l/m 0,0 km/h (0 Bft) O 93 0 min 0 min 0,000 mm 0,0 UV-I 65 W/m 14,2 C 16,4 C 0,0 km/h (0 Bft)
19.07.2024 06:30 16,1 C 16,0 C 16,1 C 85 % 1020,6 hPa 0,0 l/m 0,0 km/h (0 Bft) O 93 0 min 0 min 0,000 mm 0,0 UV-I 42 W/m 13,6 C 16,1 C 0,0 km/h (0 Bft)
19.07.2024 06:15 16,0 C 15,8 C 16,0 C 85 % 1020,7 hPa 0,0 l/m 0,0 km/h (0 Bft) O 93 0 min 0 min 0,000 mm 0,0 UV-I 21 W/m 13,5 C 16,0 C 0,0 km/h (0 Bft)
19.07.2024 06:00 15,9 C 15,8 C 16,2 C 85 % 1020,7 hPa 0,0 l/m 0,0 km/h (0 Bft) O 93 0 min 0 min 0,000 mm 0,0 UV-I 11 W/m 13,4 C 15,9 C 0,0 km/h (0 Bft)
19.07.2024 05:45 16,2 C 16,2 C 16,5 C 84 % 1020,7 hPa 0,0 l/m 0,4 km/h (0 Bft) O 93 0 min 0 min 0,000 mm 0,0 UV-I 0 W/m 13,5 C 16,2 C 4,8 km/h (1 Bft)
19.07.2024 05:30 16,4 C 16,4 C 16,6 C 84 % 1020,7 hPa 0,0 l/m 1,8 km/h (1 Bft) O 93 0 min 0 min 0,000 mm 0,0 UV-I 0 W/m 13,7 C 16,4 C 3,2 km/h (1 Bft)
19.07.2024 05:15 16,6 C 16,6 C 17,3 C 83 % 1020,7 hPa 0,0 l/m 0,3 km/h (0 Bft) O 93 0 min 0 min 0,000 mm 0,0 UV-I 0 W/m 13,7 C 16,6 C 3,2 km/h (1 Bft)
19.07.2024 05:00 17,3 C 17,3 C 17,4 C 81 % 1020,7 hPa 0,0 l/m 2,4 km/h (1 Bft) O 93 0 min 0 min 0,025 mm 0,0 UV-I 0 W/m 14,0 C 17,3 C 4,8 km/h (1 Bft)
19.07.2024 04:45 17,4 C 17,4 C 17,6 C 80 % 1020,7 hPa 0,0 l/m 2,9 km/h (1 Bft) O 93 0 min 0 min 0,000 mm 0,0 UV-I 0 W/m 13,9 C 17,4 C 4,8 km/h (1 Bft)
19.07.2024 04:30 17,5 C 17,4 C 17,5 C 81 % 1020,6 hPa 0,0 l/m 3,5 km/h (1 Bft) O 93 0 min 0 min 0,000 mm 0,0 UV-I 0 W/m 14,2 C 17,5 C 4,8 km/h (1 Bft)
19.07.2024 04:15 17,4 C 17,4 C 17,7 C 81 % 1020,7 hPa 0,0 l/m 2,8 km/h (1 Bft) O 93 0 min 0 min 0,000 mm 0,0 UV-I 0 W/m 14,1 C 17,4 C 4,8 km/h (1 Bft)
19.07.2024 04:00 17,6 C 17,6 C 18,2 C 80 % 1020,7 hPa 0,0 l/m 3,8 km/h (1 Bft) O 94 0 min 0 min 0,026 mm 0,0 UV-I 0 W/m 14,1 C 17,6 C 6,4 km/h (2 Bft)
19.07.2024 03:45 18,2 C 17,5 C 18,2 C 78 % 1020,8 hPa 0,0 l/m 4,7 km/h (1 Bft) O 93 0 min 0 min 0,000 mm 0,0 UV-I 0 W/m 14,3 C 18,2 C 9,7 km/h (2 Bft)
19.07.2024 03:30 17,7 C 17,2 C 17,7 C 80 % 1020,9 hPa 0,0 l/m 2,3 km/h (1 Bft) O 91 0 min 0 min 0,000 mm 0,0 UV-I 0 W/m 14,2 C 17,7 C 6,4 km/h (2 Bft)
19.07.2024 03:15 17,2 C 17,2 C 17,6 C 82 % 1020,9 hPa 0,0 l/m 0,0 km/h (0 Bft) O 92 0 min 0 min 0,000 mm 0,0 UV-I 0 W/m 14,1 C 17,2 C 0,0 km/h (0 Bft)
19.07.2024 03:00 17,6 C 17,4 C 17,6 C 81 % 1020,9 hPa 0,0 l/m 0,0 km/h (0 Bft) O 91 0 min 0 min 0,025 mm 0,0 UV-I 0 W/m 14,3 C 17,6 C 0,0 km/h (0 Bft)
19.07.2024 02:45 17,4 C 17,4 C 17,8 C 81 % 1021,0 hPa 0,0 l/m 0,0 km/h (0 Bft) O 91 0 min 0 min 0,000 mm 0,0 UV-I 0 W/m 14,1 C 17,4 C 0,0 km/h (0 Bft)
19.07.2024 02:30 17,8 C 17,8 C 18,2 C 80 % 1021,1 hPa 0,0 l/m 0,3 km/h (0 Bft) O 91 0 min 0 min 0,000 mm 0,0 UV-I 0 W/m 14,3 C 17,8 C 3,2 km/h (1 Bft)
19.07.2024 02:15 18,2 C 18,2 C 19,0 C 78 % 1021,3 hPa 0,0 l/m 2,6 km/h (1 Bft) O 91 0 min 0 min 0,026 mm 0,0 UV-I 0 W/m 14,3 C 18,2 C 4,8 km/h (1 Bft)
19.07.2024 02:00 19,0 C 18,6 C 19,3 C 76 % 1021,5 hPa 0,0 l/m 4,0 km/h (1 Bft) O 91 0 min 0 min 0,000 mm 0,0 UV-I 0 W/m 14,7 C 19,0 C 8,0 km/h (2 Bft)
19.07.2024 01:45 18,6 C 18,6 C 19,1 C 78 % 1021,5 hPa 0,0 l/m 2,8 km/h (1 Bft) O 84 0 min 0 min 0,000 mm 0,0 UV-I 0 W/m 14,7 C 18,6 C 6,4 km/h (2 Bft)
19.07.2024 01:30 19,0 C 18,2 C 19,0 C 77 % 1021,5 hPa 0,0 l/m 3,5 km/h (1 Bft) O 84 0 min 0 min 0,000 mm 0,0 UV-I 0 W/m 14,9 C 19,0 C 6,4 km/h (2 Bft)
19.07.2024 01:15 18,2 C 17,9 C 18,2 C 80 % 1021,6 hPa 0,0 l/m 3,1 km/h (1 Bft) O 81 0 min 0 min 0,000 mm 0,0 UV-I 0 W/m 14,7 C 18,2 C 4,8 km/h (1 Bft)
19.07.2024 01:00 17,9 C 17,9 C 17,9 C 81 % 1021,5 hPa 0,0 l/m 2,0 km/h (1 Bft) O 81 0 min 0 min 0,025 mm 0,0 UV-I 0 W/m 14,6 C 17,9 C 4,8 km/h (1 Bft)
19.07.2024 00:45 17,9 C 17,9 C 18,1 C 81 % 1021,6 hPa 0,0 l/m 2,0 km/h (1 Bft) O 81 0 min 0 min 0,000 mm 0,0 UV-I 0 W/m 14,6 C 17,9 C 4,8 km/h (1 Bft)
19.07.2024 00:30 17,9 C 17,9 C 18,1 C 81 % 1021,5 hPa 0,0 l/m 2,3 km/h (1 Bft) O 81 0 min 0 min 0,000 mm 0,0 UV-I 0 W/m 14,6 C 17,9 C 4,8 km/h (1 Bft)
19.07.2024 00:15 18,0 C 18,0 C 18,1 C 81 % 1021,6 hPa 0,0 l/m 2,3 km/h (1 Bft) O 81 0 min 0 min 0,000 mm 0,0 UV-I 0 W/m 14,7 C 18,0 C 4,8 km/h (1 Bft)
19.07.2024 00:00 18,1 C 18,1 C 18,3 C 80 % 1021,6 hPa 0,0 l/m 2,3 km/h (1 Bft) O 81 0 min 0 min 0,000 mm 0,0 UV-I 0 W/m 14,6 C 18,1 C 4,8 km/h (1 Bft)
18.07.2024 23:45 18,2 C 18,2 C 18,4 C 80 % 1021,6 hPa 0,0 l/m 2,4 km/h (1 Bft) O 81 0 min 0 min 0,000 mm 0,0 UV-I 0 W/m 14,7 C 18,2 C 4,8 km/h (1 Bft)
18.07.2024 23:30 18,4 C 18,4 C 18,8 C 81 % 1021,5 hPa 0,0 l/m 2,0 km/h (1 Bft) O 81 0 min 0 min 0,000 mm 0,0 UV-I 0 W/m 15,1 C 18,4 C 4,8 km/h (1 Bft)
18.07.2024 23:15 18,8 C 18,8 C 19,2 C 79 % 1021,6 hPa 0,0 l/m 0,2 km/h (0 Bft) O 81 0 min 0 min 0,025 mm 0,0 UV-I 0 W/m 15,1 C 18,8 C 3,2 km/h (1 Bft)
18.07.2024 23:00 19,2 C 19,2 C 19,8 C 79 % 1021,7 hPa 0,0 l/m 0,2 km/h (0 Bft) O 81 0 min 0 min 0,000 mm 0,0 UV-I 0 W/m 15,5 C 19,2 C 3,2 km/h (1 Bft)
18.07.2024 22:45 19,8 C 19,8 C 20,1 C 77 % 1021,6 hPa 0,0 l/m 1,4 km/h (1 Bft) O 81 0 min 0 min 0,000 mm 0,0 UV-I 0 W/m 15,6 C 19,8 C 3,2 km/h (1 Bft)
18.07.2024 22:30 20,1 C 20,1 C 20,6 C 76 % 1021,6 hPa 0,0 l/m 1,7 km/h (1 Bft) O 81 0 min 0 min 0,000 mm 0,0 UV-I 0 W/m 15,7 C 20,1 C 3,2 km/h (1 Bft)
18.07.2024 22:15 20,6 C 20,6 C 21,1 C 74 % 1021,6 hPa 0,0 l/m 1,7 km/h (1 Bft) O 81 0 min 0 min 0,026 mm 0,0 UV-I 0 W/m 15,8 C 20,6 C 3,2 km/h (1 Bft)
18.07.2024 22:00 21,1 C 21,1 C 22,0 C 73 % 1021,5 hPa 0,0 l/m 2,0 km/h (1 Bft) O 81 0 min 0 min 0,000 mm 0,0 UV-I 0 W/m 16,1 C 21,1 C 3,2 km/h (1 Bft)
18.07.2024 21:45 21,9 C 21,9 C 22,6 C 70 % 1021,4 hPa 0,0 l/m 1,4 km/h (1 Bft) O 81 0 min 0 min 0,000 mm 0,0 UV-I 0 W/m 16,2 C 21,9 C 3,2 km/h (1 Bft)
18.07.2024 21:30 22,6 C 22,6 C 23,5 C 68 % 1021,3 hPa 0,0 l/m 0,0 km/h (0 Bft) O 81 0 min 0 min 0,000 mm 0,0 UV-I 5 W/m 16,4 C 22,6 C 0,0 km/h (0 Bft)
18.07.2024 21:15 23,5 C 23,4 C 24,3 C 64 % 1021,2 hPa 0,0 l/m 0,4 km/h (0 Bft) O 81 0 min 0 min 0,050 mm 0,0 UV-I 12 W/m 16,3 C 23,5 C 3,2 km/h (1 Bft)
18.07.2024 21:00 24,3 C 24,3 C 24,9 C 60 % 1021,1 hPa 0,0 l/m 2,1 km/h (1 Bft) O 81 0 min 0 min 0,000 mm 0,0 UV-I 16 W/m 16,0 C 24,3 C 4,8 km/h (1 Bft)
18.07.2024 20:45 24,9 C 24,9 C 25,4 C 58 % 1021,1 hPa 0,0 l/m 3,2 km/h (1 Bft) O 81 0 min 0 min 0,000 mm 0,0 UV-I 23 W/m 16,1 C 24,9 C 6,4 km/h (2 Bft)
18.07.2024 20:30 25,4 C 25,4 C 26,1 C 56 % 1020,9 hPa 0,0 l/m 3,8 km/h (1 Bft) O 81 0 min 0 min 0,000 mm 0,0 UV-I 32 W/m 16,0 C 25,4 C 8,0 km/h (2 Bft)
18.07.2024 20:15 26,1 C 26,0 C 26,3 C 54 % 1020,9 hPa 0,0 l/m 5,0 km/h (1 Bft) O 81 0 min 0 min 0,077 mm 0,0 UV-I 39 W/m 16,0 C 26,1 C 12,9 km/h (3 Bft)
18.07.2024 20:00 26,2 C 26,2 C 26,7 C 54 % 1020,8 hPa 0,0 l/m 4,3 km/h (1 Bft) O 83 0 min 0 min 0,000 mm 0,0 UV-I 39 W/m 16,1 C 26,2 C 11,3 km/h (2 Bft)
18.07.2024 19:45 26,7 C 26,7 C 27,1 C 53 % 1020,8 hPa 0,0 l/m 4,8 km/h (1 Bft) O 86 0 min 0 min 0,000 mm 0,0 UV-I 44 W/m 16,3 C 26,7 C 12,9 km/h (3 Bft)
18.07.2024 19:30 27,1 C 26,8 C 27,1 C 52 % 1020,9 hPa 0,0 l/m 4,9 km/h (1 Bft) O 83 0 min 0 min 0,000 mm 0,0 UV-I 54 W/m 16,4 C 27,1 C 12,9 km/h (3 Bft)
18.07.2024 19:15 27,1 C 27,1 C 27,9 C 50 % 1020,8 hPa 0,0 l/m 6,6 km/h (2 Bft) O 84 0 min 0 min 0,279 mm 0,5 UV-I 65 W/m 15,8 C 27,1 C 16,1 km/h (3 Bft)
18.07.2024 19:00 27,9 C 27,8 C 28,1 C 48 % 1020,9 hPa 0,0 l/m 6,1 km/h (2 Bft) O-NO 76 15 min 0 min 0,000 mm 0,7 UV-I 236 W/m 15,9 C 27,9 C 16,1 km/h (3 Bft)
18.07.2024 18:45 27,8 C 27,7 C 28,1 C 49 % 1021,0 hPa 0,0 l/m 6,4 km/h (2 Bft) O 81 15 min 0 min 0,000 mm 0,8 UV-I 381 W/m 16,1 C 27,8 C 14,5 km/h (3 Bft)
18.07.2024 18:30 28,1 C 27,7 C 28,2 C 48 % 1021,0 hPa 0,0 l/m 4,9 km/h (1 Bft) O 81 15 min 0 min 0,000 mm 1,1 UV-I 369 W/m 16,0 C 28,1 C 14,5 km/h (3 Bft)
18.07.2024 18:15 27,8 C 27,8 C 28,6 C 49 % 1021,0 hPa 0,0 l/m 5,0 km/h (1 Bft) O 88 15 min 0 min 0,381 mm 1,2 UV-I 450 W/m 16,1 C 27,8 C 11,3 km/h (2 Bft)
18.07.2024 18:00 28,4 C 28,2 C 28,7 C 49 % 1021,1 hPa 0,0 l/m 5,8 km/h (2 Bft) O 88 15 min 0 min 0,000 mm 1,5 UV-I 501 W/m 16,6 C 28,4 C 14,5 km/h (3 Bft)
18.07.2024 17:45 28,4 C 27,8 C 28,5 C 49 % 1021,3 hPa 0,0 l/m 7,1 km/h (2 Bft) O-NO 76 15 min 0 min 0,000 mm 1,9 UV-I 570 W/m 16,6 C 28,4 C 19,3 km/h (3 Bft)
18.07.2024 17:30 27,9 C 27,4 C 28,2 C 50 % 1021,4 hPa 0,0 l/m 6,1 km/h (2 Bft) O 83 0 min 0 min 0,000 mm 1,6 UV-I 171 W/m 16,5 C 27,9 C 14,5 km/h (3 Bft)
18.07.2024 17:15 28,2 C 28,2 C 28,8 C 47 % 1021,4 hPa 0,0 l/m 6,8 km/h (2 Bft) O 84 15 min 0 min 0,483 mm 2,2 UV-I 531 W/m 15,8 C 28,2 C 16,1 km/h (3 Bft)
18.07.2024 17:00 28,4 C 28,1 C 28,7 C 47 % 1021,6 hPa 0,0 l/m 8,1 km/h (2 Bft) O-NO 71 15 min 0 min 0,000 mm 2,9 UV-I 649 W/m 16,0 C 28,4 C 17,7 km/h (3 Bft)
18.07.2024 16:45 28,7 C 28,2 C 28,8 C 47 % 1021,6 hPa 0,0 l/m 7,9 km/h (2 Bft) O-NO 71 15 min 0 min 0,000 mm 3,0 UV-I 638 W/m 16,3 C 28,7 C 17,7 km/h (3 Bft)
18.07.2024 16:30 28,2 C 27,9 C 28,4 C 48 % 1021,6 hPa 0,0 l/m 4,4 km/h (1 Bft) O 92 15 min 0 min 0,000 mm 3,5 UV-I 680 W/m 16,1 C 28,2 C 12,9 km/h (3 Bft)
18.07.2024 16:15 28,4 C 28,1 C 28,6 C 46 % 1021,8 hPa 0,0 l/m 7,5 km/h (2 Bft) O 84 15 min 0 min 0,508 mm 3,8 UV-I 703 W/m 15,6 C 28,4 C 16,1 km/h (3 Bft)
18.07.2024 16:00 28,1 C 27,6 C 28,2 C 47 % 1021,8 hPa 0,0 l/m 5,7 km/h (1 Bft) O 81 15 min 0 min 0,000 mm 4,2 UV-I 742 W/m 15,7 C 28,1 C 14,5 km/h (3 Bft)
18.07.2024 15:45 27,9 C 27,5 C 28,1 C 49 % 1021,7 hPa 0,0 l/m 3,0 km/h (1 Bft) O 89 15 min 0 min 0,000 mm 3,9 UV-I 608 W/m 16,2 C 27,9 C 8,0 km/h (2 Bft)
18.07.2024 15:30 27,6 C 27,5 C 28,1 C 49 % 1021,8 hPa 0,0 l/m 4,9 km/h (1 Bft) O 84 15 min 0 min 0,000 mm 4,5 UV-I 708 W/m 15,9 C 27,6 C 16,1 km/h (3 Bft)
18.07.2024 15:15 27,6 C 27,4 C 27,8 C 49 % 1021,9 hPa 0,0 l/m 6,5 km/h (2 Bft) O-SO 103 15 min 0 min 0,457 mm 4,9 UV-I 840 W/m 15,9 C 27,6 C 14,5 km/h (3 Bft)
18.07.2024 15:00 27,6 C 27,1 C 27,9 C 49 % 1021,8 hPa 0,0 l/m 5,7 km/h (1 Bft) O-SO 114 15 min 0 min 0,000 mm 4,8 UV-I 700 W/m 15,9 C 27,6 C 20,9 km/h (4 Bft)
18.07.2024 14:45 27,1 C 26,3 C 27,1 C 52 % 1021,9 hPa 0,0 l/m 3,2 km/h (1 Bft) O 96 15 min 0 min 0,000 mm 5,2 UV-I 844 W/m 16,4 C 27,1 C 11,3 km/h (2 Bft)
18.07.2024 14:30 26,3 C 26,3 C 27,4 C 55 % 1022,0 hPa 0,0 l/m 6,3 km/h (2 Bft) O 96 0 min 0 min 0,000 mm 4,4 UV-I 313 W/m 16,5 C 26,3 C 14,5 km/h (3 Bft)
18.07.2024 14:15 27,2 C 26,7 C 27,4 C 52 % 1022,0 hPa 0,0 l/m 5,8 km/h (2 Bft) O 88 15 min 0 min 0,482 mm 5,3 UV-I 835 W/m 16,5 C 27,2 C 16,1 km/h (3 Bft)
18.07.2024 14:00 26,8 C 26,2 C 26,8 C 54 % 1022,1 hPa 0,0 l/m 5,8 km/h (2 Bft) O 101 15 min 0 min 0,000 mm 5,8 UV-I 831 W/m 16,7 C 26,8 C 14,5 km/h (3 Bft)
18.07.2024 13:45 26,2 C 25,7 C 26,9 C 55 % 1022,1 hPa 0,0 l/m 4,8 km/h (1 Bft) O-NO 72 15 min 0 min 0,000 mm 5,4 UV-I 912 W/m 16,4 C 26,2 C 14,5 km/h (3 Bft)
18.07.2024 13:30 26,8 C 25,5 C 26,8 C 53 % 1022,2 hPa 0,0 l/m 5,7 km/h (1 Bft) O-NO 61 15 min 0 min 0,000 mm 5,3 UV-I 733 W/m 16,4 C 26,8 C 16,1 km/h (3 Bft)
18.07.2024 13:15 25,5 C 25,5 C 26,6 C 57 % 1022,3 hPa 0,0 l/m 5,7 km/h (1 Bft) O 84 0 min 0 min 0,000 mm 5,8 UV-I 292 W/m 16,3 C 25,5 C 14,5 km/h (3 Bft)
18.07.2024 13:00 26,3 C 25,8 C 26,3 C 57 % 1022,4 hPa 0,0 l/m 5,2 km/h (1 Bft) O-NO 71 15 min 0 min 0,508 mm 5,5 UV-I 831 W/m 17,1 C 26,3 C 12,9 km/h (3 Bft)
18.07.2024 12:45 26,2 C 25,3 C 26,2 C 57 % 1022,5 hPa 0,0 l/m 5,4 km/h (1 Bft) O-NO 67 15 min 0 min 0,000 mm 5,1 UV-I 796 W/m 17,0 C 26,2 C 14,5 km/h (3 Bft)
18.07.2024 12:30 25,6 C 25,4 C 26,1 C 59 % 1022,5 hPa 0,0 l/m 4,3 km/h (1 Bft) O-NO 61 15 min 0 min 0,000 mm 5,1 UV-I 854 W/m 17,0 C 25,6 C 12,9 km/h (3 Bft)
18.07.2024 12:15 26,1 C 25,2 C 26,1 C 60 % 1022,7 hPa 0,0 l/m 5,4 km/h (1 Bft) O-NO 69 15 min 0 min 0,458 mm 5,1 UV-I 830 W/m 17,7 C 26,1 C 14,5 km/h (3 Bft)
18.07.2024 12:00 25,3 C 24,5 C 25,4 C 60 % 1022,8 hPa 0,0 l/m 5,5 km/h (1 Bft) O-NO 74 15 min 0 min 0,000 mm 4,7 UV-I 784 W/m 17,0 C 25,3 C 14,5 km/h (3 Bft)
18.07.2024 11:45 24,5 C 24,5 C 24,7 C 61 % 1023,0 hPa 0,0 l/m 4,1 km/h (1 Bft) O-NO 63 15 min 0 min 0,000 mm 4,6 UV-I 501 W/m 16,5 C 24,5 C 12,9 km/h (3 Bft)
18.07.2024 11:30 24,6 C 24,2 C 24,6 C 63 % 1023,0 hPa 0,0 l/m 3,8 km/h (1 Bft) O-NO 58 15 min 0 min 0,000 mm 4,4 UV-I 798 W/m 17,1 C 24,6 C 9,7 km/h (2 Bft)
18.07.2024 11:15 24,5 C 23,7 C 24,6 C 64 % 1023,0 hPa 0,0 l/m 4,3 km/h (1 Bft) NO 56 15 min 0 min 0,330 mm 3,7 UV-I 726 W/m 17,2 C 24,5 C 11,3 km/h (2 Bft)
18.07.2024 11:00 24,0 C 23,3 C 24,1 C 65 % 1023,1 hPa 0,0 l/m 4,1 km/h (1 Bft) NO 43 15 min 0 min 0,000 mm 3,7 UV-I 696 W/m 17,0 C 24,0 C 11,3 km/h (2 Bft)
_ Min-Zeit 06:00 06:00 06:15 16:15 09:15 - 21:30 - - - - - - - 06:00 06:00 21:30
Minimum _ 15,8 C 15,8 C 16,0 C 46 % 1020,1 hPa - 0,0 km/h (0 Bft) - - - - - - - 13,4 C 15,9 C 0,0 km/h (0 Bft)
_ Max-Zeit 16:45 16:45 16:45 06:45 11:00 11:00 17:00 - - 11:00 11:00 13:00 13:15 13:45 12:15 16:45 15:00
Maximum _ 28,8 C 28,2 C 28,8 C 87 % 1023,1 hPa 0,0 l/m 8,1 km/h
O-NO (2 Bft)
- - 15 min 0 min 0,508 mm 5,8 UV-I 912 W/m 17,7 C 28,7 C 20,9 km/h
O-SO (4 Bft)
Durchschnitt _ 22,6 C 22,3 C 22,8 C 67 % 1021,4 hPa #0,0 l/m 3,2 km/h (1 Bft) O - #1:30 h #0 min. #0,533 mm 1,2 UV-I 190 W/m 15,7 C 22,6 C 8,2 km/h (2 Bft)